Weather in Ardatov

Russia / Republic of Mordovia     54°50′47″N   46°14′28″E
temp.,
°C
wind,
m/s
gust,
m/s
humid.,
%
clouds,
%
prec.,
mm/h
press.,
hPa
HPBL,
m
7 march, sun
sun700:00−14w229873 0.0 101320
03:00−15w239749 0.0 101320
06:00−16wsw339649 0.0 101225
09:00−12sw499346 0.0 1011273
12:00−8sw6118787 0.0 1009583
15:00−7ssw7138593 0.0 1005766
18:00−7ssw81591100 0.5 1001938
21:00−5ssw81593100 1.2 9981010
8 march, mon
mon800:00−5ssw71591100 0.4 993764
03:00−3wsw101687100 1.1 9911103
06:00−8wsw9188479 0.0 993547
09:00−8wsw8139073 0.0 997640
12:00−6wsw81185100 0.1 999882
15:00−6wsw598790 0.1 1000734
18:00−8ssw339199 0.0 100146
21:00−7wsw5109499 0.3 1002428
9 march, tue
tue900:00−11w5119578 0.0 1003224
03:00−14w479781 0.1 1005105
06:00−16w469995 0.0 1007105
09:00−14wnw469697 0.1 1009245
12:00−11wnw3591100 0.1 1010446
15:00−11nw4689100 0.1 1011573
18:00−15nw349599 0.0 101273
21:00−17nw369696 0.1 1014125
10 march, wed
wed1000:00−19nw349996 0.1 101563
03:00−20nw349997 0.1 101689
06:00−20nnw379898 0.1 1018235
09:00−20nnw479699 0.1 1020345
12:00−19nnw5791100 0.0 1021484
15:00−20nw579097 0.0 1022512
18:00−24nw349798 0.0 102354
21:00−26wnw349994 0.0 102549
11 march, thu
thu1100:00−27w349632 0.0 102549
03:00−26w469924 0.0 102692
06:00−23w599780 0.0 1026237
09:00−21w6109581 0.0 1026276
12:00−14w6109090 0.0 1025415
15:00−11wnw6118548 0.0 1025475
18:00−14w5118720 0.0 1026248
21:00−17w489310 0.0 1028124